{"data":{"norad_id":58942,"epoch":"2026-09-20T00:56:01.497408Z","epoch_age_seconds":195570,"freshness":"STALE","line1":"1 58942U 24027M   26263.03890622  .00003045  00000+0  10982-3 0  9996","line2":"2 58942  53.1584 125.5030 0001333  88.5357 271.5797 15.31704511147107","mean_motion":15.31704511,"eccentricity":0.0001333,"inclination_deg":53.1584,"raan_deg":125.503,"arg_perigee_deg":88.5357,"mean_anomaly_deg":271.5797,"bstar":0.00010982,"rev_number":14710,"period_min":94.012911084258,"perigee_km":469.81359469141,"apogee_km":471.63950171336,"semimajor_km":6848.8635482024,"source":"CELESTRAK","updated_at":"2026-09-21T09:00:33.998249Z"}}